Home > Weather > Brampton > Past weeks

Flag for Canada Past Weather in Brampton, Ontario, Canada — Yesterday and Last 2 Weeks

Now
84 °F

Passing clouds.


Feels Like: 82 °F
Forecast: 54 / 82 °F
Wind: 15 mph from Northwest

Location: Toronto Pearson International Airport

Current Time: May 24, 2016 at 3:49:52 PM

Latest Report: May 24, 2016 at 3:00 PM


Visibility: 15 mi

Pressure: 29.94 "Hg

Humidity: 22%

Dew Point: 41 °F

Location of BramptonLocation

Past Weather in Brampton — Graph

°F

Brampton Temperature Yesterday

Maximum temperature yesterday: 77 °F (at 3:00 PM)
Minimum temperature yesterday: 52 °F (at 6:00 AM)
Average temperature yesterday: 66 °F

High & Low Weather Summary for the Past Weeks

 TemperatureHumidityPressure
High81 °F (May 24, 2:00 PM)94% (May 13, 3:00 AM)30.29 "Hg (May 13, 3:00 AM)
Low32 °F (May 16, 6:00 AM)25% (May 9, 5:00 PM)29.46 "Hg (May 14, 12:00 PM)
Average56 °F52%30.03 "Hg
* Reported May 9 2:00 PM — May 24 2:00 PM, Brampton, Weather by CustomWeather, © 2016

Note: Actual official high and low records may vary slightly from our data, if they occured in-between our weather recording intervals... More about our weather records

Advertising

Brampton Weather History for the Previous 24 Hours

Scroll right to see more
 ConditionsComfort  
Time TempWeatherWind HumidityBarometerVisibility
2:00 PM
Tue, May 24
81 °FPassing clouds.10 mph26%29.95 "Hg15 mi
1:00 PM79 °FPassing clouds.9 mph34%29.96 "Hg15 mi
12:00 PM77 °FPassing clouds.6 mph36%29.97 "Hg15 mi
11:00 AM77 °FPassing clouds.5 mph28%29.98 "Hg15 mi
10:00 AM72 °FPassing clouds.2 mph38%29.99 "Hg15 mi
9:00 AM66 °FPassing clouds.3 mph40%30.00 "Hg15 mi
8:00 AM63 °FPassing clouds.3 mph45%29.99 "Hg15 mi
7:00 AM59 °FPassing clouds.3 mph51%29.98 "Hg15 mi
6:00 AM55 °FPassing clouds.6 mph51%29.98 "Hg15 mi
5:00 AM55 °FClear.6 mph47%29.97 "Hg15 mi
4:00 AM57 °FClear.2 mph51%29.96 "Hg15 mi
3:00 AM59 °FClear.5 mph48%29.97 "Hg15 mi
2:00 AM61 °FClear.6 mph45%29.97 "Hg15 mi
1:00 AM61 °FClear.8 mph45%29.98 "Hg15 mi
12:00 AM63 °FClear.8 mph42%29.97 "Hg15 mi
11:00 PM
Mon, May 23
64 °FClear.10 mph43%29.97 "Hg15 mi
10:00 PM68 °FClear.12 mph40%29.95 "Hg15 mi
9:00 PM72 °FPassing clouds.2 mph36%29.93 "Hg15 mi
8:00 PM73 °FPassing clouds.6 mph36%29.93 "Hg15 mi
7:00 PM75 °FPassing clouds.9 mph34%29.93 "Hg15 mi
6:00 PM77 °FPassing clouds.8 mph34%29.94 "Hg15 mi
5:00 PM77 °FPassing clouds.10 mph34%29.94 "Hg15 mi
4:00 PM77 °FPassing clouds.12 mph32%29.97 "Hg15 mi
3:00 PM77 °FPassing clouds.12 mph32%29.99 "Hg15 mi
Weather by CustomWeather, © 2016

See weather overviewHow to use our weather pages